Content
SEND FEEDBACK

Daily
Averages
Monthly
Summary
Japan

TOKYO, JAPAN


Home > Asia > Japan
Elevation: 26 feet     Latitude: 35 33N     Longitude: 139 47E

WEATHER
 
SELECT A DAY
Number of Records: 337,659;   Date Range: 7/1/96 - 11/26/14
 
SHARE

PRINT THIS DATA

[ ← Previous Day ]
WEATHER ALMANAC - FEBRUARY 13, 2013
[ Next Day → ]
[ °C ]   °F
Weather ElementAverageHighLow
Temperature44.6 °F53.6 °F (2:00 pm)33.8 °F (4:00 am)
Dewpoint27.6 °F35.6 °F (7:00 am)12.2 °F (3:04 pm)
Humidity56.9 %93 % (4:00 am)19 % (3:04 pm)
Barometer29.89 in30.15 in (11:00 pm)29.74 in (6:30 am)
Wind Speed17.1 mph32.2 mph (2:00 pm)
Wind Gust50.6 mph (2:00 pm)
Weather ElementAverage
Visibility5.3 mi
Wind DirectionWNW (277.8 °)

Weather ElementTotal
Precipitation---
Heating Degree Days21.3 (Base 65)
Averaged from 63 records on February 13, 2013
WEATHER CONDITIONS BREAKOUT
WIND DIRECTION BREAKOUT
WEATHER BY HOUR - FEBRUARY 13, 2013
[ °C ]   °F
Local TimeTemperatureDewpointHumidityBarometerVisibilityWind DirectionWind SpeedGust SpeedPrecipitationEventsConditions
12:30 AM41.0 °F32.0 °F70 %29.98 in6.2 miNNE (30°)6.9 mphRainLight Rain
1:00 AM39.2 °F33.8 °F81 %29.92 in6.2 miNNE (30°)6.9 mphRainLight Rain
1:30 AM39.2 °F33.8 °F81 %29.89 in4.3 miNorth (10°)9.2 mphRainLight Rain
2:00 AM39.2 °F33.8 °F81 %29.86 in3.7 miNorth (10°)9.2 mphRainLight Rain
2:30 AM39.2 °F33.8 °F81 %29.86 in3.7 miNorth (10°)12.7 mphRainLight Rain
2:47 AM37.4 °F33.8 °F87 %29.83 in3.1 miNNW (340°)13.8 mphRainLight Rain
3:00 AM37.4 °F33.8 °F87 %29.83 in2.8 miNNW (330°)13.8 mphRainRain
3:21 AM35.6 °F32.0 °F87 %29.83 in2.5 miNNW (330°)19.6 mphRainRain
3:30 AM35.6 °F32.0 °F87 %29.80 in2.5 miNNW (330°)20.7 mphRainRain
3:42 AM35.6 °F32.0 °F87 %29.80 in2.5 miNNW (340°)20.7 mph32.2 mphRainRain
4:00 AM33.8 °F32.0 °F93 %29.80 in2.2 miNNW (340°)18.4 mphRainRain
4:25 AM35.6 °F32.0 °F87 %29.80 in2.5 miNNW (330°)13.8 mphRain-SnowRain
4:30 AM35.6 °F32.0 °F87 %29.80 in2.5 miNNW (340°)12.7 mphRain-SnowRain
5:00 AM35.6 °F33.8 °F93 %29.80 in3.1 miNW (320°)9.2 mphRain-SnowLight Rain
5:30 AM37.4 °F33.8 °F87 %29.77 in3.1 miNNE (20°)5.8 mphRainLight Rain
6:00 AM37.4 °F33.8 °F87 %29.77 in3.7 miWNW (300°)3.5 mphRainLight Rain
6:30 AM37.4 °F33.8 °F87 %29.74 in3.1 miWNW (290°)5.8 mphRainLight Rain
6:37 AM37.4 °F33.8 °F87 %29.74 in3.1 miNNW (330°)8.1 mphRainLight Rain
6:44 AM37.4 °F33.8 °F87 %29.77 in3.7 miNNW (330°)9.2 mphRainLight Rain
7:00 AM37.4 °F35.6 °F93 %29.74 in4.3 miNorth (360°)15.0 mphMostly Cloudy
7:30 AM39.2 °F35.6 °F87 %29.74 in4.3 miNorth (350°)10.4 mphPartly Cloudy
8:00 AM39.2 °F35.6 °F87 %29.74 in6.2 miNorth (10°)6.9 mphPartly Cloudy
8:30 AM42.8 °F35.6 °F76 %29.77 in6.2 miNorth (350°)6.9 mphPartly Cloudy
9:00 AM41.0 °F35.6 °F81 %29.77 in6.2 miNorth (350°)15.0 mphPartly Cloudy
9:30 AM42.8 °F33.8 °F70 %29.77 in6.2 miNorth (350°)16.1 mphPartly Cloudy
10:00 AM44.6 °F33.8 °F66 %29.77 in6.2 miNNW (340°)18.4 mphPartly Cloudy
10:30 AM46.4 °F33.8 °F62 %29.77 in6.2 miNorth (360°)18.4 mphPartly Cloudy
11:00 AM48.2 °F32.0 °F54 %29.77 in6.2 miNorth (360°)8.1 mphPartly Cloudy
11:10 AM50.0 °F30.2 °F47 %29.77 in6.2 miNNW (340°)20.7 mphPartly Cloudy
11:19 AM50.0 °F26.6 °F40 %29.80 in6.2 miNNW (330°)21.9 mph33.4 mphPartly Cloudy
11:30 AM51.8 °F24.8 °F35 %29.80 in6.2 miNNW (330°)20.7 mph34.5 mphPartly Cloudy
12:00 PM51.8 °F26.6 °F38 %29.80 in6.2 miNNW (330°)25.3 mph38.0 mphPartly Cloudy
12:30 PM50.0 °F24.8 °F37 %29.80 in6.2 miNNW (340°)26.5 mphPartly Cloudy
12:36 PM50.0 °F24.8 °F37 %29.80 in6.2 miNNW (340°)26.5 mph38.0 mphPartly Cloudy
1:00 PM51.8 °F23.0 °F33 %29.80 in6.2 miNNW (330°)28.8 mph42.6 mphPartly Cloudy
1:30 PM51.8 °F23.0 °F33 %29.83 in6.2 miNNW (330°)24.2 mph35.7 mphPartly Cloudy
2:00 PM53.6 °F15.8 °F22 %29.86 in6.2 miNNW (330°)32.2 mph50.6 mphPartly Cloudy
2:30 PM53.6 °F15.8 °F22 %29.89 in6.2 miNNW (340°)27.6 mphPartly Cloudy
2:36 PM51.8 °F17.6 °F26 %29.89 in6.2 miNNW (340°)26.5 mph38.0 mphPartly Cloudy
3:00 PM53.6 °F14.0 °F21 %29.89 in6.2 miNW (320°)24.2 mphPartly Cloudy
3:04 PM53.6 °F12.2 °F19 %29.89 in6.2 miNNW (330°)23.0 mph34.5 mphPartly Cloudy
3:30 PM51.8 °F14.0 °F22 %29.92 in6.2 miNNW (330°)27.6 mphPartly Cloudy
3:35 PM51.8 °F14.0 °F22 %29.92 in6.2 miNNW (330°)26.5 mph38.0 mphPartly Cloudy
4:00 PM51.8 °F23.0 °F33 %29.92 in6.2 miNorth (350°)23.0 mphPartly Cloudy
4:30 PM50.0 °F24.8 °F37 %29.95 in6.2 miNorth (350°)18.4 mphPartly Cloudy
5:00 PM50.0 °F23.0 °F35 %29.98 in6.2 miNNW (340°)19.6 mphPartly Cloudy
5:30 PM50.0 °F23.0 °F35 %30.01 in6.2 miNorth (350°)17.3 mphPartly Cloudy
6:00 PM48.2 °F24.8 °F40 %30.01 in6.2 miNorth (350°)21.9 mphPartly Cloudy
6:28 PM48.2 °F24.8 °F40 %30.04 in6.2 miNNW (340°)18.4 mph29.9 mphPartly Cloudy
6:30 PM48.2 °F23.0 °F37 %30.04 in6.2 miNNW (340°)19.6 mphPartly Cloudy
6:44 PM48.2 °F23.0 °F37 %30.06 in6.2 miNNW (340°)18.4 mph29.9 mphPartly Cloudy
7:00 PM46.4 °F23.0 °F40 %30.06 in6.2 miNNW (340°)19.6 mphPartly Cloudy
7:18 PM46.4 °F23.0 °F40 %30.06 in6.2 miNNW (330°)20.7 mph32.2 mphPartly Cloudy
7:30 PM46.4 °F23.0 °F40 %30.06 in6.2 miNNW (340°)24.2 mphPartly Cloudy
7:35 PM46.4 °F24.8 °F43 %30.06 in6.2 miNNW (340°)21.9 mph33.4 mphPartly Cloudy
8:00 PM46.4 °F23.0 °F40 %30.09 in6.2 miNorth (350°)23.0 mphPartly Cloudy
8:30 PM46.4 °F28.4 °F50 %30.09 in6.2 miNorth (350°)19.6 mphPartly Cloudy
9:00 PM46.4 °F28.4 °F50 %30.09 in6.2 miNorth (10°)18.4 mphPartly Cloudy
9:30 PM46.4 °F24.8 °F43 %30.12 in6.2 miNorth (10°)13.8 mphPartly Cloudy
10:00 PM44.6 °F26.6 °F49 %30.12 in6.2 miNorth (360°)15.0 mphPartly Cloudy
10:30 PM44.6 °F26.6 °F49 %30.12 in6.2 miNNE (20°)12.7 mphPartly Cloudy
11:00 PM44.6 °F26.6 °F49 %30.15 in6.2 miENE (60°)8.1 mphPartly Cloudy
11:30 PM44.6 °F24.8 °F46 %30.15 in6.2 miNE (50°)9.2 mphPartly Cloudy
Hourly data recorded from RJTT, located miles away from Tokyo, Japan







STORIES FROM OUR PARTNERS